^^
Saratoga-Weather Station Historical Data
Daily Summary for March 15, 2021 Units:  English    Metric   Both
Daily Weekly Monthly Yearly Custom
  High: Low: Average:
Temperature: 84.9 °F 57.4 °F 68.7 °F
Dew Point: 61.9 °F 54.1 °F 57.2 °F
Humidity: 90% 41% 69%
Wind Speed: 4mph 0mph 0.7mph
Wind Gust: 7mph - -
Wind- - SSE
Pressure: 30.1 in 30 in -
Precipitation: 0 in    
Historical Graphs
 
 
Tabular Data for March 15, 2021
Time Temperature Dew Point Pressure Wind Wind Speed Wind Gust Humidity Rainfall Rate (Hourly) solar
00:00 66.9 °F 56.5 °F 30 in SSW 0.9 mph 1 mph 69% 0 in 0 W/m2
00:05 66.9 °F 55.9 °F 30 in Calm     68% 0 in 0 W/m2
00:10 66.9 °F 56.5 °F 30 in SSW 0.9 mph 1 mph 69% 0 in 0 W/m2
00:15 66.7 °F 56.3 °F 30 in Calm   1 mph 69% 0 in 0 W/m2
00:20 66.7 °F 56.3 °F 30 in Calm     69% 0 in 0 W/m2
00:25 66.6 °F 56.1 °F 30 in Calm     69% 0 in 0 W/m2
00:30 66.4 °F 56.3 °F 30 in Calm   1 mph 70% 0 in 0 W/m2
00:35 66.6 °F 56.5 °F 30 in Calm     70% 0 in 0 W/m2
00:40 66.4 °F 56.3 °F 30 in Calm   1 mph 70% 0 in 0 W/m2
00:45 66 °F 56.3 °F 30 in Calm     71% 0 in 0 W/m2
00:50 65.8 °F 56.1 °F 30 in Calm     71% 0 in 0 W/m2
00:55 65.5 °F 56.3 °F 30 in Calm     72% 0 in 0 W/m2
01:00 65.1 °F 56.3 °F 30 in Calm     73% 0 in 0 W/m2
01:05 64.9 °F 56.1 °F 30 in Calm     73% 0 in 0 W/m2
01:10 64.8 °F 55.9 °F 30 in Calm     73% 0 in 0 W/m2
01:15 64.4 °F 55.6 °F 30 in Calm     73% 0 in 0 W/m2
01:20 64.2 °F 55.8 °F 30 in SSW 0.9 mph 1 mph 74% 0 in 0 W/m2
01:25 64 °F 55.6 °F 30 in SSW 2 mph 2 mph 74% 0 in 0 W/m2
01:30 63.9 °F 55.8 °F 30 in SSW 0.9 mph 1 mph 75% 0 in 0 W/m2
01:35 63.7 °F 55.6 °F 30 in Calm   1 mph 75% 0 in 0 W/m2
01:40 63.5 °F 55 °F 30 in Calm     74% 0 in 0 W/m2
01:45 63.3 °F 55.2 °F 30 in Calm   1 mph 75% 0 in 0 W/m2
01:50 63.1 °F 55 °F 30 in Calm     75% 0 in 0 W/m2
01:55 63.1 °F 55 °F 30 in Calm     75% 0 in 0 W/m2
02:00 63.1 °F 55 °F 30 in Calm     75% 0 in 0 W/m2
02:05 63 °F 54.9 °F 30 in Calm     75% 0 in 0 W/m2
02:10 63 °F 54.9 °F 30 in Calm     75% 0 in 0 W/m2
02:15 62.8 °F 55 °F 30 in Calm     76% 0 in 0 W/m2
02:20 62.6 °F 54.9 °F 30 in Calm     76% 0 in 0 W/m2
02:25 62.4 °F 54.7 °F 30 in Calm   2 mph 76% 0 in 0 W/m2
02:30 62.2 °F 54.5 °F 30 in Calm     76% 0 in 0 W/m2
02:35 62.1 °F 54.7 °F 30 in Calm   2 mph 77% 0 in 0 W/m2
02:40 61.9 °F 54.7 °F 30 in Calm     77% 0 in 0 W/m2
02:45 61.7 °F 54.5 °F 30 in Calm     77% 0 in 0 W/m2
02:50 61.5 °F 54.7 °F 30 in Calm     78% 0 in 0 W/m2
02:55 61.5 °F 54.7 °F 30 in SSW 0.9 mph 1 mph 78% 0 in 0 W/m2
03:00 61.3 °F 54.5 °F 30 in Calm     78% 0 in 0 W/m2
03:05 61.3 °F 54.9 °F 30 in Calm     79% 0 in 0 W/m2
03:10 61.2 °F 54.7 °F 30 in Calm     79% 0 in 0 W/m2
03:15 61 °F 54.5 °F 30 in Calm     79% 0 in 0 W/m2
03:20 60.8 °F 54.7 °F 30 in Calm     80% 0 in 0 W/m2
03:25 60.6 °F 54.5 °F 30 in Calm     80% 0 in 0 W/m2
03:30 60.4 °F 54.5 °F 30 in Calm     81% 0 in 0 W/m2
03:35 60.3 °F 54.7 °F 30 in Calm     82% 0 in 0 W/m2
03:40 60.1 °F 54.5 °F 30 in Calm     82% 0 in 0 W/m2
03:45 60.1 °F 54.9 °F 30 in Calm     83% 0 in 0 W/m2
03:50 59.9 °F 54.7 °F 30 in Calm     83% 0 in 0 W/m2
03:55 59.7 °F 54.9 °F 30 in Calm     84% 0 in 0 W/m2
04:01 59.7 °F 54.9 °F 30 in Calm     84% 0 in 0 W/m2
04:06 59.5 °F 54.7 °F 30 in Calm     84% 0 in 0 W/m2
04:11 59.4 °F 54.5 °F 30 in Calm     84% 0 in 0 W/m2
04:16 59.4 °F 54.9 °F 30 in Calm     85% 0 in 0 W/m2
04:21 59.2 °F 54.3 °F 30 in Calm     84% 0 in 0 W/m2
04:26 59 °F 54.5 °F 30 in Calm     85% 0 in 0 W/m2
04:31 58.8 °F 54.3 °F 30 in Calm     85% 0 in 0 W/m2
04:36 58.8 °F 54.7 °F 30 in Calm     86% 0 in 0 W/m2
04:41 58.6 °F 54.5 °F 30 in Calm     86% 0 in 0 W/m2
04:51 58.5 °F 54.7 °F 30 in Calm     87% 0 in 0 W/m2
04:56 58.5 °F 54.7 °F 30 in Calm     87% 0 in 0 W/m2
05:01 58.3 °F 54.7 °F 30 in Calm     88% 0 in 0 W/m2
05:06 58.3 °F 54.5 °F 30 in Calm     87% 0 in 0 W/m2
05:11 58.1 °F 54.5 °F 30 in Calm     88% 0 in 0 W/m2
05:16 57.9 °F 54.3 °F 30 in Calm     88% 0 in 0 W/m2
05:21 57.9 °F 54.3 °F 30 in Calm     88% 0 in 0 W/m2
05:26 57.7 °F 54.1 °F 30 in Calm     88% 0 in 0 W/m2
05:31 57.7 °F 54.1 °F 30 in Calm     88% 0 in 0 W/m2
05:36 57.7 °F 54.1 °F 30 in Calm     88% 0 in 0 W/m2
05:41 57.6 °F 54.3 °F 30 in Calm     89% 0 in 5 W/m2
05:46 57.6 °F 54.3 °F 30 in Calm     89% 0 in 7 W/m2
05:51 57.6 °F 54.3 °F 30 in Calm     89% 0 in 11 W/m2
05:56 57.6 °F 54.3 °F 30 in Calm     89% 0 in 12 W/m2
06:01 57.4 °F 54.1 °F 30 in Calm     89% 0 in 14 W/m2
06:06 57.4 °F 54.5 °F 30 in Calm     90% 0 in 14 W/m2
06:11 57.4 °F 54.5 °F 30 in Calm     90% 0 in 16 W/m2
06:16 57.6 °F 54.7 °F 30 in Calm     90% 0 in 21 W/m2
06:21 57.7 °F 54.9 °F 30 in Calm     90% 0 in 21 W/m2
06:26 57.9 °F 55 °F 30 in Calm     90% 0 in 23 W/m2
06:31 58.1 °F 54.9 °F 30 in Calm     89% 0 in 25 W/m2
06:36 58.3 °F 55 °F 30 in Calm     89% 0 in 30 W/m2
06:41 58.3 °F 55 °F 30 in Calm     89% 0 in 30 W/m2
06:46 58.5 °F 55.2 °F 30 in Calm     89% 0 in 37 W/m2
06:51 58.5 °F 55.2 °F 30 in Calm     89% 0 in 46 W/m2
06:56 58.6 °F 55.4 °F 30 in Calm     89% 0 in 49 W/m2
07:01 58.8 °F 55.6 °F 30 in Calm     89% 0 in 54 W/m2
07:06 59.2 °F 55.6 °F 30 in SSW 0.9 mph 1 mph 88% 0 in 56 W/m2
07:11 59.7 °F 56.1 °F 30.1 in Calm     88% 0 in 63 W/m2
07:16 60.3 °F 56.1 °F 30.1 in SSW 0.9 mph 2 mph 86% 0 in 67 W/m2
07:21 60.6 °F 56.5 °F 30.1 in Calm     86% 0 in 69 W/m2
07:26 61.2 °F 56.7 °F 30.1 in SSW 0.9 mph 2 mph 85% 0 in 77 W/m2
07:31 61.5 °F 56.7 °F 30 in Calm   1 mph 84% 0 in 81 W/m2
07:36 62.1 °F 56.5 °F 30.1 in Calm   2 mph 82% 0 in 113 W/m2
07:41 62.8 °F 56.8 °F 30.1 in SW 0.9 mph 1 mph 81% 0 in 216 W/m2
07:46 63.1 °F 57.2 °F 30.1 in Calm   1 mph 81% 0 in 181 W/m2
07:51 63.9 °F 57.6 °F 30.1 in Calm     80% 0 in 162 W/m2
07:56 64.2 °F 57.2 °F 30.1 in WNW 2 mph 3 mph 78% 0 in 171 W/m2
08:01 64.8 °F 57 °F 30.1 in WSW 2.9 mph 3 mph 76% 0 in 230 W/m2
08:06 65.5 °F 57.7 °F 30.1 in WSW 2 mph 2 mph 76% 0 in 255 W/m2
08:11 65.8 °F 57 °F 30.1 in Calm   2 mph 73% 0 in 223 W/m2
08:16 66.4 °F 57.4 °F 30.1 in WNW 0.9 mph 5 mph 73% 0 in 144 W/m2
08:21 66.9 °F 57.6 °F 30.1 in WNW 2 mph 4 mph 72% 0 in 83 W/m2
08:26 67.1 °F 57.4 °F 30.1 in West 2.9 mph 4 mph 71% 0 in 77 W/m2
08:31 67.1 °F 57.4 °F 30.1 in NW 2.9 mph 4 mph 71% 0 in 86 W/m2
08:36 67.5 °F 58.1 °F 30.1 in WNW 0.9 mph 2 mph 72% 0 in 90 W/m2
08:41 68.2 °F 58.8 °F 30.1 in WNW 0.9 mph 2 mph 72% 0 in 93 W/m2
08:46 68.5 °F 58.3 °F 30.1 in NW 0.9 mph 3 mph 70% 0 in 98 W/m2
08:51 69.4 °F 58.5 °F 30.1 in Calm   3 mph 68% 0 in 100 W/m2
08:56 70.3 °F 58.8 °F 30.1 in SSE 0.9 mph 2 mph 67% 0 in 105 W/m2
09:01 71.1 °F 59.2 °F 30.1 in ENE 0.9 mph 2 mph 66% 0 in 111 W/m2
09:06 71.4 °F 59.9 °F 30.1 in NNE 0.9 mph 1 mph 67% 0 in 121 W/m2
09:11 71.8 °F 59 °F 30.1 in East 0.9 mph 2 mph 64% 0 in 181 W/m2
09:17 71.8 °F 59 °F 30.1 in Calm   1 mph 64% 0 in 325 W/m2
09:22 71.8 °F 59.4 °F 30.1 in Calm   2 mph 65% 0 in 540 W/m2
09:27 72 °F 59.9 °F 30.1 in SE 2 mph 3 mph 66% 0 in 536 W/m2
09:32 72.7 °F 59.7 °F 30.1 in East 0.9 mph 3 mph 64% 0 in 575 W/m2
09:37 73.2 °F 59.9 °F 30.1 in ESE 4 mph 4 mph 63% 0 in 388 W/m2
09:42 73.2 °F 59.4 °F 30.1 in Calm   4 mph 62% 0 in 399 W/m2
09:47 73.4 °F 59.5 °F 30.1 in NNE 0.9 mph 4 mph 62% 0 in 482 W/m2
09:52 73.8 °F 59.5 °F 30.1 in East 2 mph 3 mph 61% 0 in 427 W/m2
09:57 73.8 °F 59.5 °F 30.1 in ESE 2 mph 2 mph 61% 0 in 506 W/m2
10:02 73.9 °F 60.1 °F 30.1 in Calm   2 mph 62% 0 in 411 W/m2
10:07 73.9 °F 59.2 °F 30.1 in East 0.9 mph 4 mph 60% 0 in 383 W/m2
10:12 74.3 °F 59.5 °F 30.1 in ENE 0.9 mph 1 mph 60% 0 in 209 W/m2
10:17 74.7 °F 59.9 °F 30.1 in Calm   2 mph 60% 0 in 264 W/m2
10:22 75 °F 59.7 °F 30.1 in NE 2 mph 4 mph 59% 0 in 566 W/m2
10:27 75.6 °F 59.7 °F 30.1 in North 0.9 mph 2 mph 58% 0 in 617 W/m2
10:32 75.9 °F 59.5 °F 30.1 in ESE 0.9 mph 4 mph 57% 0 in 613 W/m2
10:37 76.5 °F 59.5 °F 30 in Calm   4 mph 56% 0 in 313 W/m2
10:42 76.6 °F 59.2 °F 30.1 in NE 0.9 mph 3 mph 55% 0 in 564 W/m2
10:47 77.2 °F 58.3 °F 30.1 in NE 2 mph 5 mph 52% 0 in 615 W/m2
10:52 77.4 °F 59.4 °F 30.1 in Calm   3 mph 54% 0 in 631 W/m2
10:57 77.7 °F 59.2 °F 30 in ESE 0.9 mph 5 mph 53% 0 in 631 W/m2
11:02 77.7 °F 58.6 °F 30 in NE 0.9 mph 1 mph 52% 0 in 605 W/m2
11:07 78.1 °F 58.5 °F 30 in South 0.9 mph 2 mph 51% 0 in 703 W/m2
11:12 78.6 °F 59 °F 30 in ENE 2 mph 6 mph 51% 0 in 759 W/m2
11:17 79.2 °F 60.1 °F 30.1 in ESE 0.9 mph 3 mph 52% 0 in 698 W/m2
11:22 79.5 °F 59.2 °F 30 in East 2 mph 3 mph 50% 0 in 657 W/m2
11:27 80.1 °F 59.7 °F 30 in Calm   3 mph 50% 0 in 668 W/m2
11:32 80.4 °F 61.2 °F 30 in ESE 0.9 mph 2 mph 52% 0 in 759 W/m2
11:37 81 °F 60.6 °F 30 in Calm   4 mph 50% 0 in 703 W/m2
11:42 81.1 °F 60.8 °F 30 in Calm   3 mph 50% 0 in 654 W/m2
11:47 81.3 °F 61 °F 30 in Calm   1 mph 50% 0 in 610 W/m2
11:52 81.5 °F 59.9 °F 30 in ENE 2.9 mph 4 mph 48% 0 in 638 W/m2
11:57 81.1 °F 59.5 °F 30 in SE 0.9 mph 2 mph 48% 0 in 689 W/m2
12:02 81.1 °F 61.9 °F 30 in ENE 2 mph 4 mph 52% 0 in 777 W/m2
12:07 81.5 °F 61 °F 30 in SSE 0.9 mph 2 mph 50% 0 in 830 W/m2
12:12 81.7 °F 60.6 °F 30 in ESE 0.9 mph 4 mph 49% 0 in 810 W/m2
12:17 81.7 °F 61.2 °F 30 in SE 2.9 mph 3 mph 50% 0 in 847 W/m2
12:22 82.2 °F 60.6 °F 30 in NE 0.9 mph 3 mph 48% 0 in 851 W/m2
12:27 82.6 °F 61.5 °F 30 in Calm   2 mph 49% 0 in 844 W/m2
12:32 82.9 °F 60.6 °F 30 in SE 2 mph 6 mph 47% 0 in 835 W/m2
12:37 82.9 °F 61.9 °F 30 in NNW 2 mph 2 mph 49% 0 in 861 W/m2
12:42 82.9 °F 60.1 °F 30 in NNW 2 mph 6 mph 46% 0 in 891 W/m2
12:47 82.9 °F 60.1 °F 30 in East 2 mph 5 mph 46% 0 in 895 W/m2
12:52 83.1 °F 61.3 °F 30 in NNW 2 mph 6 mph 48% 0 in 905 W/m2
12:57 82.9 °F 59.4 °F 30 in West 0.9 mph 2 mph 45% 0 in 905 W/m2
13:02 83.5 °F 60.4 °F 30 in North 2.9 mph 5 mph 46% 0 in 891 W/m2
13:07 83.8 °F 60.3 °F 30 in North 2 mph 6 mph 45% 0 in 893 W/m2
13:12 84 °F 61 °F 30 in Calm   1 mph 46% 0 in 928 W/m2
13:17 84.6 °F 60.3 °F 30 in West 0.9 mph 6 mph 44% 0 in 881 W/m2
13:22 84.9 °F 61.2 °F 30 in ESE 2.9 mph 3 mph 45% 0 in 926 W/m2
13:27 84.7 °F 59.7 °F 30 in East 2.9 mph 5 mph 43% 0 in 932 W/m2
13:32 84.9 °F 59.9 °F 30 in NNW 2.9 mph 4 mph 43% 0 in 937 W/m2
13:37 84.7 °F 59.7 °F 30 in ENE 2.9 mph 3 mph 43% 0 in 816 W/m2
13:42 84.4 °F 58.8 °F 30 in NNW 2.9 mph 5 mph 42% 0 in 788 W/m2
13:47 84.2 °F 57.9 °F 30 in ENE 0.9 mph 5 mph 41% 0 in 911 W/m2
13:52 84.2 °F 58.6 °F 30 in East 2 mph 7 mph 42% 0 in 954 W/m2
13:57 84.6 °F 59 °F 30 in East 0.9 mph 4 mph 42% 0 in 974 W/m2
14:02 84.9 °F 58.6 °F 30 in NE 0.9 mph 6 mph 41% 0 in 896 W/m2
14:07 84.6 °F 60.3 °F 30 in SE 0.9 mph 3 mph 44% 0 in 666 W/m2
14:12 84.6 °F 59 °F 30 in East 2 mph 4 mph 42% 0 in 742 W/m2
14:17 84.6 °F 59 °F 30 in East 2 mph 3 mph 42% 0 in 715 W/m2
14:22 84.6 °F 59 °F 30 in Calm   4 mph 42% 0 in 835 W/m2
14:27 84.6 °F 59.5 °F 30 in Calm   3 mph 43% 0 in 875 W/m2
14:33 84.4 °F 58.1 °F 30 in NW 2 mph 2 mph 41% 0 in 795 W/m2
Juneau County Weather
Compliments of Weather Underground - 2 mb